Weather History for International Falls, MN

Change the Weather History Date:

Tuesday, October 23, 2012

  Actual Average Record
Temperature  
Mean Temperature 47 °F 38 °F  
Max Temperature 50 °F 48 °F 78 °F (1963)
Min Temperature 43 °F 29 °F 10 °F (1981)
Degree Days  
Heating Degree Days 18 27  
Month to date heating degree days 530 512  
Since 1 July heating degree days 1057 1046  
Cooling Degree Days 0 0  
Month to date cooling degree days 0 0  
Year to date cooling degree days 222 192  
Moisture  
Dew Point 44 °F    
Average Humidity 81    
Maximum Humidity 100    
Minimum Humidity 61    
Precipitation  
Precipitation 1.07 in 0.06 in 1.07 in (2012)
Month to date precipitation 2.81 1.62  
Year to date precipitation 22.88 21.57  
Snow  
Snow 0.00 in 0.10 in 1.00 in (1987)
Month to date snowfall 1.5 1.2  
Since 1 July snowfall 1.5 1.3  
Since 1 September snowfall 1.5 1.3  
Snow Depth 0.00 in    
Sea Level Pressure  
Sea Level Pressure 29.84 in    
Wind  
Wind Speed 10 mph (East)    
Max Wind Speed 21 mph    
Max Gust Speed 28 mph    
Visibility 6 miles    
Events Rain , Thunderstorm    
T = Trace of Precipitation, MM = Missing Value Source: NWS Daily Summary

Daily Weather History Graph

Daily Weather History Graph

Search for Another Location

Airport:

Trip Planner

Search our weather history database for the weather conditions in past years. The results will help you decide how hot, cold, wet, or windy it might be!

Date:

Astronomy

Oct. 23, 2012 Rise Set
Actual Time 7:46 AM CDT 6:08 PM CDT
Civil Twilight 7:14 AM CDT 6:40 PM CDT
Nautical Twilight 6:37 AM CDT 7:17 PM CDT
Astronomical Twilight 6:01 AM CDT 7:53 PM CDT
Moon 3:17 PM CDT (10/23) 1:10 AM CDT (10/23)
Length of Visible Light 11h 26m
Length of Day
10h 21m
Waxing Gibbous, 67% of the Moon is Illuminated
Oct 23
Waxing Gibbous
Oct 29
Full
Nov 6
Last Quarter
Nov 13
New
Nov 20
First Quarter

Hourly Weather History & Observations

Time (CDT) Temp. Windchill Dew Point Humidity Pressure Visibility Wind Dir Wind Speed Gust Speed Precip Events Conditions
12:55 AM 48.0 °F - 36.0 °F 63% 30.02 in 10.0 mi East 10.4 mph - N/A   Overcast
1:55 AM 48.0 °F - 36.0 °F 63% 30.02 in 10.0 mi East 10.4 mph - N/A   Overcast
2:55 AM 46.9 °F - 36.0 °F 66% 29.97 in 10.0 mi ENE 10.4 mph - 0.00 in Rain Light Rain
3:55 AM 46.9 °F - 37.0 °F 68% 29.99 in 10.0 mi East 9.2 mph - 0.00 in Rain Light Rain
4:52 AM 44.6 °F 43.1 °F 41.0 °F 87% 29.98 in 4.0 mi NNW 3.5 mph - N/A Rain Rain
4:55 AM 44.1 °F 41.5 °F 41.0 °F 89% 30.01 in 4.0 mi North 4.6 mph - 0.06 in Rain Rain
5:16 AM 44.6 °F 40.7 °F 42.8 °F 93% 29.98 in 4.0 mi East 6.9 mph - 0.08 in Rain Rain
5:55 AM 44.1 °F 37.7 °F 42.1 °F 93% 29.96 in 4.0 mi ENE 12.7 mph - 0.21 in Rain , Thunderstorm Rain
6:09 AM 42.8 °F 36.6 °F 42.8 °F 100% 29.93 in 3.0 mi East 11.5 mph 19.6 mph 0.08 in Rain , Thunderstorm Heavy Rain
6:28 AM 42.8 °F 35.1 °F 42.8 °F 100% 29.93 in 3.0 mi East 16.1 mph 20.7 mph 0.19 in Rain Heavy Rain
6:38 AM 42.8 °F 35.8 °F 41.0 °F 93% 29.92 in 1.8 mi East 13.8 mph - 0.39 in Rain Heavy Rain
6:45 AM 42.8 °F 36.6 °F 42.8 °F 100% 29.92 in 3.0 mi East 11.5 mph - 0.40 in Rain Light Rain
6:55 AM 43.0 °F 36.4 °F 41.0 °F 93% 29.96 in 7.0 mi ENE 12.7 mph 19.6 mph 0.41 in Rain Light Rain
7:14 AM 44.6 °F 39.7 °F 41.0 °F 87% 29.94 in 10.0 mi ENE 9.2 mph 21.9 mph 0.00 in   Overcast
7:55 AM 43.0 °F 35.4 °F 41.0 °F 93% 29.94 in 10.0 mi East 16.1 mph 20.7 mph 0.03 in Rain Light Rain
8:07 AM 42.8 °F 36.2 °F 41.0 °F 93% 29.91 in 9.0 mi East 12.7 mph 27.6 mph 0.00 in Rain Light Rain
8:24 AM 42.8 °F 35.8 °F 41.0 °F 93% 29.90 in 2.5 mi East 13.8 mph 23.0 mph 0.13 in Rain Rain
8:36 AM 42.8 °F 36.6 °F 41.0 °F 93% 29.91 in 5.0 mi East 11.5 mph 19.6 mph 0.13 in Rain Light Rain
9:43 AM 42.8 °F 36.2 °F 41.0 °F 93% 29.89 in 8.0 mi East 12.7 mph - 0.00 in Rain Light Rain
9:55 AM 43.0 °F 36.4 °F 41.0 °F 93% 29.92 in 6.0 mi East 12.7 mph - 0.00 in Rain Light Rain
10:55 AM 43.0 °F 36.8 °F 42.1 °F 97% 29.91 in 8.0 mi East 11.5 mph - 0.03 in Rain Light Rain
11:20 AM 44.6 °F 38.8 °F 42.8 °F 93% 29.86 in 10.0 mi East 11.5 mph - 0.00 in   Overcast
11:55 AM 44.1 °F 38.6 °F 43.0 °F 96% 29.88 in 6.0 mi East 10.4 mph - 0.00 in   Overcast
12:55 PM 45.0 °F 38.2 °F 44.1 °F 97% 29.85 in 10.0 mi ESE 15.0 mph 24.2 mph N/A   Overcast
1:50 PM 46.4 °F 41.1 °F 44.6 °F 93% 29.80 in 1.8 mi ESE 11.5 mph - 0.00 in Rain Light Rain
1:55 PM 46.0 °F 40.6 °F 45.0 °F 96% 29.83 in 1.5 mi East 11.5 mph - 0.00 in Rain Light Rain
2:30 PM 46.4 °F 41.1 °F 44.6 °F 93% 29.79 in 2.0 mi ESE 11.5 mph - 0.00 in Rain Light Rain
2:55 PM 46.0 °F 40.6 °F 45.0 °F 96% 29.81 in 2.5 mi ESE 11.5 mph - 0.01 in Rain Light Rain
3:03 PM 46.4 °F 41.9 °F 44.6 °F 93% 29.77 in 4.0 mi East 9.2 mph - 0.00 in Rain Light Rain
3:55 PM 46.9 °F - 46.0 °F 97% 29.79 in 6.0 mi ESE 9.2 mph - 0.00 in   Overcast
4:11 PM 46.4 °F 41.1 °F 46.4 °F 100% 29.76 in 2.0 mi ESE 11.5 mph - N/A   Overcast
4:19 PM 46.4 °F 41.1 °F 46.4 °F 100% 29.75 in 1.8 mi ESE 11.5 mph - N/A   Overcast
4:55 PM 46.9 °F - 46.9 °F 100% 29.76 in 1.8 mi ESE 10.4 mph - N/A   Overcast
5:12 PM 48.2 °F - 46.4 °F 93% 29.74 in 2.0 mi ESE 10.4 mph - N/A   Overcast
5:24 PM 48.2 °F - 46.4 °F 93% 29.73 in 4.0 mi ESE 12.7 mph - 0.01 in   Overcast
5:55 PM 48.0 °F - 46.9 °F 96% 29.75 in 10.0 mi ESE 15.0 mph 21.9 mph 0.01 in   Overcast
6:05 PM 48.2 °F - 46.4 °F 93% 29.73 in 10.0 mi SE 10.4 mph - N/A   Overcast
6:55 PM 48.0 °F - 46.9 °F 96% 29.75 in 10.0 mi SE 12.7 mph - N/A   Overcast
7:05 PM 48.2 °F - 46.4 °F 93% 29.72 in 10.0 mi SE 12.7 mph - N/A Thunderstorm Overcast
7:35 PM 48.2 °F - 46.4 °F 93% 29.71 in 4.0 mi SE 12.7 mph - 0.03 in Rain Light Rain
7:55 PM 48.0 °F - 46.9 °F 96% 29.74 in 10.0 mi SE 12.7 mph - 0.03 in   Overcast
8:55 PM 48.0 °F - 48.0 °F 100% 29.73 in 10.0 mi SE 11.5 mph 18.4 mph 0.00 in   Overcast
9:30 PM 48.2 °F - 48.2 °F 100% 29.69 in 9.0 mi SE 10.4 mph - N/A   Overcast
9:55 PM 48.9 °F - 48.0 °F 97% 29.73 in 7.0 mi Variable 4.6 mph - 0.00 in Rain Light Rain
10:06 PM 48.2 °F - 48.2 °F 100% 29.70 in 3.0 mi Variable 4.6 mph - 0.03 in Rain , Thunderstorm Heavy Thunderstorms and Rain
10:32 PM 48.2 °F - 48.2 °F 100% 29.71 in 2.5 mi Variable 3.5 mph - 0.10 in Rain Light Rain
10:52 PM 48.2 °F - 48.2 °F 100% 29.70 in 3.0 mi Calm Calm - 0.12 in Rain Light Rain
10:55 PM 48.9 °F - 48.9 °F 100% 29.73 in 3.0 mi Calm Calm - 0.12 in Rain Light Rain
11:16 PM 48.2 °F - 48.2 °F 100% 29.72 in 2.0 mi West 4.6 mph - 0.00 in Rain Light Rain
11:47 PM 50.0 °F - 48.2 °F 94% 29.72 in 3.0 mi Calm Calm - 0.02 in Rain Light Rain
11:55 PM 50.0 °F - 48.9 °F 96% 29.76 in 3.0 mi SSW 3.5 mph - 0.02 in   Overcast